Ballina Observation History
Time Wind Speed Temp Pressure Rel. Hum Rain
26/05:30pm NE 9-14 kts 19.0°c 1017.6 hPa 75% 0.0mm
26/05:00pm NNE 11-18 kts 19.5°c 1017.2 hPa 73% 0.0mm
26/04:30pm NE 10-13 kts 19.5°c 1017.0 hPa 72% 0.0mm
26/04:00pm NE 13-19 kts 20.5°c 1016.8 hPa 68% 0.0mm
26/03:30pm NNE 14-19 kts 20.7°c 1016.7 hPa 68% 0.0mm
26/03:00pm NE 11-15 kts 21.4°c 1016.6 hPa 65% 0.0mm
26/02:30pm NE 13-16 kts 21.9°c 1016.6 hPa 59% 0.0mm
26/02:00pm NE 13-15 kts 21.7°c 1016.8 hPa 58% 0.0mm
26/01:30pm ENE 11-15 kts 22.3°c 1017.0 hPa 55% 0.0mm
26/01:00pm ENE 12-14 kts 21.7°c 1017.3 hPa 53% 0.0mm
26/12:30pm ENE 10-13 kts 21.6°c 1017.8 hPa 53% 0.0mm
26/12:00pm ENE 9-11 kts 21.9°c 1018.3 hPa 54% 0.0mm
26/11:30am E 8-11 kts 21.5°c 1018.7 hPa 57% 0.0mm
26/11:00am W 5-8 kts 22.0°c 1019.1 hPa 52% 0.0mm
26/10:30am SW 4-5 kts 20.7°c 1019.5 hPa 53% 0.0mm
26/10:00am WNW 3-6 kts 20.2°c 1019.9 hPa 56% 0.0mm
26/09:30am SW 5-8 kts 19.3°c 1020.1 hPa 56% 0.0mm
26/09:00am SSW 4-5 kts 18.9°c 1020.3 hPa 57% 0.0mm
26/08:30am CALM 0 kts 17.7°c 1020.0 hPa 62% 0.0mm
26/08:00am CALM 0 kts 15.9°c 1019.9 hPa 77% 0.0mm
26/07:30am CALM 0 kts 13.1°c 1019.5 hPa 91% 0.0mm
26/07:00am CALM 0 kts 10.7°c 1019.1 hPa 96% 0.0mm
26/06:30am NNW 3-4 kts 9.3°c 1018.8 hPa 96% 0.0mm
26/06:00am CALM 0 kts 8.3°c 1018.6 hPa 93% 0.0mm
26/05:30am CALM 0 kts 9.7°c 1018.0 hPa 95% 0.0mm
26/05:00am CALM 0 kts 9.2°c 1017.7 hPa 92% 0.0mm
26/04:30am W 2-5 kts 9.9°c 1017.6 hPa 94% 0.0mm
26/04:00am CALM 0 kts 9.8°c 1017.3 hPa 92% 0.0mm
26/03:30am CALM 0 kts 10.3°c 1017.1 hPa 92% 0.0mm
26/03:00am WNW 3-4 kts 10.6°c 1017.0 hPa 92% 0.0mm
26/02:30am CALM 0 kts 10.4°c 1017.0 hPa 88% 0.0mm
26/02:00am CALM 0 kts 12.0°c 1017.0 hPa 79% 0.0mm
26/01:30am N 5-6 kts 14.6°c 1017.0 hPa 77% 0.0mm
26/01:00am NNW 4-5 kts 15.1°c 1017.1 hPa 74% 0.0mm
26/12:30am N 6-9 kts 15.6°c 1016.9 hPa 70% 0.0mm
26/12:00am NE 6-8 kts 15.2°c 1017.2 hPa 75% 0.0mm
Time Wind Speed Temp Pressure Rel. Hum Rain
25/11:30pm NE 5-8 kts 15.4°c 1017.3 hPa 74% 0.0mm
25/11:00pm N 5-7 kts 15.9°c 1017.2 hPa 77% 0.0mm
25/10:30pm N 6-9 kts 16.5°c 1017.3 hPa 78% 0.0mm
25/10:00pm NNE 6-9 kts 16.2°c 1017.4 hPa 80% 0.0mm
25/09:30pm NNE 7-11 kts 16.7°c 1017.4 hPa 79% 0.0mm
25/09:00pm NNE 8-11 kts 17.1°c 1017.5 hPa 78% 0.0mm
25/08:30pm NNE 7-11 kts 17.5°c 1017.5 hPa 75% 0.0mm
25/08:00pm N 8-11 kts 17.6°c 1017.4 hPa 76% 0.0mm
25/07:30pm NNE 7-10 kts 17.5°c 1017.4 hPa 79% 0.0mm
25/07:00pm N 8-11 kts 17.6°c 1017.3 hPa 81% 0.0mm
25/06:30pm N 7-10 kts 17.6°c 1017.2 hPa 79% 0.0mm
25/06:00pm N 8-10 kts 18.2°c 1016.9 hPa 76% 0.0mm
25/05:30pm NNE 8-12 kts 18.7°c 1016.7 hPa 71% 0.0mm
25/05:00pm NNE 9-14 kts 20.1°c 1016.3 hPa 65% 0.0mm
25/04:30pm NNE 9-12 kts 21.1°c 1016.0 hPa 58% 0.0mm
25/04:00pm NNE 11-15 kts 22.0°c 1016.1 hPa 52% 0.0mm
25/03:30pm NNE 9-14 kts 22.8°c 1016.0 hPa 52% 0.0mm
25/03:00pm NE 12-15 kts 23.2°c 1016.0 hPa 50% 0.0mm
25/02:30pm NNE 11-16 kts 23.2°c 1016.0 hPa 40% 0.0mm
25/02:00pm NE 11-15 kts 23.6°c 1016.0 hPa 44% 0.0mm
25/01:30pm NE 13-17 kts 23.6°c 1016.3 hPa 48% 0.0mm
25/01:00pm NE 12-14 kts 23.4°c 1016.5 hPa 48% 0.0mm
25/12:30pm NNE 8-12 kts 23.7°c 1017.1 hPa 50% 0.0mm
25/12:00pm NNE 6-9 kts 24.1°c 1017.8 hPa 42% 0.0mm
25/11:30am NNW 6-12 kts 23.5°c 1018.4 hPa 43% 0.0mm
25/11:00am NW 7-13 kts 22.7°c 1018.9 hPa 46% 0.0mm
25/10:30am WNW 7-11 kts 22.4°c 1019.3 hPa 50% 0.0mm
25/10:00am N 1-5 kts 21.7°c 1019.7 hPa 45% 0.0mm
25/09:30am NNE 1-3 kts 20.4°c 1019.9 hPa 50% 0.0mm
25/09:00am N 2-4 kts 19.0°c 1020.0 hPa 58% 0.0mm
25/08:30am N 3-5 kts 17.0°c 1020.2 hPa 66% 0.0mm
25/08:00am CALM 0-4 kts 14.0°c 1020.2 hPa 84% 0.0mm
25/07:30am CALM 0 kts 11.0°c 1019.9 hPa 96% 0.0mm
25/07:00am CALM 0 kts 8.3°c 1019.6 hPa 97% 0.0mm
25/06:30am CALM 0 kts 6.2°c 1019.5 hPa 95% 0.0mm
25/06:09am CALM 0 kts 6.3°c 1019.4 hPa 95% 0.0mm
25/06:00am CALM 0 kts 5.8°c 1019.4 hPa 95% 0.0mm
25/05:36am CALM 0 kts 6.6°c 1019.3 hPa 95% 0.0mm
25/05:30am CALM 0 kts 6.8°c 1019.2 hPa 95% 0.0mm
25/05:00am W 3-4 kts 6.2°c 1019.1 hPa 94% 0.0mm
25/04:30am W 4-5 kts 7.1°c 1019.0 hPa 95% 0.0mm
25/04:04am CALM 0 kts 7.6°c 1018.9 hPa 95% 0.0mm
25/04:00am CALM 0 kts 7.5°c 1018.9 hPa 95% 0.0mm
25/03:40am CALM 0 kts 7.2°c 1018.9 hPa 94% 0.0mm
25/03:30am CALM 0 kts 7.6°c 1019.0 hPa 94% 0.0mm
25/03:03am CALM 0 kts 7.6°c 1019.1 hPa 93% 0.0mm
25/03:00am CALM 0 kts 7.7°c 1019.1 hPa 93% 0.0mm
25/02:39am CALM 0 kts 7.9°c 1019.1 hPa 93% 0.0mm
25/02:30am CALM 0 kts 8.5°c 1019.2 hPa 93% 0.0mm
25/02:00am CALM 0 kts 8.4°c 1019.2 hPa 91% 0.0mm
25/01:30am CALM 0 kts 10.2°c 1019.5 hPa 91% 0.0mm
25/01:00am NW 2-3 kts 10.2°c 1019.7 hPa 86% 0.0mm
25/12:30am CALM 0-3 kts 11.6°c 1019.9 hPa 77% 0.0mm
25/12:00am NNW 4-6 kts 13.7°c 1020.1 hPa 73% 0.0mm
Time Wind Speed Temp Pressure Rel. Hum Rain
24/11:30pm N 8-10 kts 14.6°c 1020.1 hPa 70% 0.0mm
24/11:00pm N 8-11 kts 15.2°c 1020.0 hPa 69% 0.0mm
24/10:30pm N 9-13 kts 15.3°c 1020.3 hPa 69% 0.0mm
24/10:00pm N 10-15 kts 15.5°c 1020.4 hPa 69% 0.0mm
24/09:30pm N 9-13 kts 15.8°c 1020.5 hPa 69% 0.0mm
24/09:00pm N 10-13 kts 16.0°c 1020.7 hPa 69% 0.0mm
24/08:30pm N 10-14 kts 16.2°c 1020.7 hPa 68% 0.0mm
24/08:00pm N 9-15 kts 16.4°c 1020.7 hPa 70% 0.0mm
24/07:30pm N 9-14 kts 16.4°c 1020.6 hPa 70% 0.0mm
24/07:00pm NNE 10-13 kts 16.7°c 1020.6 hPa 69% 0.0mm
24/06:30pm NNE 10-14 kts 16.9°c 1020.5 hPa 67% 0.0mm
24/06:00pm NNE 10-14 kts 16.8°c 1020.3 hPa 67% 0.0mm
24/05:30pm NNE 9-14 kts 17.0°c 1020.3 hPa 65% 0.0mm
24/05:00pm NNE 11-17 kts 18.0°c 1020.3 hPa 61% 0.0mm
24/04:30pm NNE 13-19 kts 18.5°c 1020.2 hPa 58% 0.0mm
24/04:00pm NNE 13-20 kts 19.1°c 1020.1 hPa 56% 0.0mm
24/03:30pm NE 13-19 kts 19.7°c 1020.1 hPa 56% 0.0mm
24/03:00pm NE 15-19 kts 19.7°c 1020.2 hPa 54% 0.0mm
24/02:30pm NE 15-19 kts 19.8°c 1020.4 hPa 53% 0.0mm
24/02:00pm NE 15-20 kts 19.7°c 1020.8 hPa 56% 0.0mm
24/01:30pm NE 14-19 kts 20.4°c 1021.2 hPa 55% 0.0mm
24/01:00pm NE 15-19 kts 20.1°c 1021.6 hPa 55% 0.0mm
24/12:30pm NE 15-19 kts 19.9°c 1022.1 hPa 55% 0.0mm
24/12:00pm NE 14-19 kts 19.8°c 1022.8 hPa 56% 0.0mm
24/11:30am NE 13-18 kts 20.4°c 1023.4 hPa 50% 0.0mm
24/11:00am NE 11-14 kts 20.0°c 1023.9 hPa 50% 0.0mm
24/10:30am NNE 6-10 kts 19.0°c 1024.3 hPa 55% 0.0mm
24/10:00am N 4-7 kts 19.3°c 1024.8 hPa 58% 0.0mm
24/09:30am WSW 4-6 kts 18.3°c 1025.1 hPa 63% 0.0mm
24/09:00am WNW 4-6 kts 17.3°c 1025.2 hPa 65% 0.0mm
24/08:30am WNW 3-5 kts 15.9°c 1025.4 hPa 74% 0.0mm
24/08:00am CALM 0 kts 13.4°c 1025.3 hPa 83% 0.0mm
24/07:30am CALM 0 kts 11.1°c 1025.3 hPa 96% 0.0mm
24/07:00am W 1-3 kts 8.3°c 1025.3 hPa 97% 0.0mm
24/06:30am W 1-3 kts 6.6°c 1025.2 hPa 96% 0.0mm
24/06:00am CALM 0 kts 6.6°c 1024.9 hPa 96% 0.0mm
24/05:30am CALM 0 kts 6.3°c 1024.9 hPa 96% 0.0mm
24/05:00am CALM 0 kts 6.5°c 1024.7 hPa 96% 0.0mm
24/04:30am CALM 0 kts 6.9°c 1024.7 hPa 96% 0.0mm
24/04:00am CALM 0 kts 6.8°c 1024.4 hPa 96% 0.0mm
24/03:42am CALM 0 kts 6.9°c 1024.4 hPa 96% 0.0mm
24/03:30am CALM 0 kts 6.7°c 1024.4 hPa 96% 0.0mm
24/03:22am CALM 0 kts 6.5°c 1024.4 hPa 95% 0.0mm
24/03:00am CALM 0 kts 6.8°c 1024.4 hPa 96% 0.0mm
24/02:30am CALM 0 kts 7.7°c 1024.5 hPa 96% 0.0mm
24/02:00am CALM 0 kts 7.4°c 1024.7 hPa 96% 0.0mm
24/01:30am CALM 0 kts 7.7°c 1024.8 hPa 95% 0.0mm
24/01:00am CALM 0 kts 7.9°c 1025.0 hPa 95% 0.0mm
24/12:30am CALM 0 kts 8.2°c 1025.1 hPa 95% 0.0mm
24/12:19am CALM 0 kts 7.7°c 1025.2 hPa 94% 0.0mm
24/12:00am CALM 0 kts 7.2°c 1025.3 hPa 92% 0.0mm